Location: Unspecified
(0.0000°N, 0.0000°E)
Time: 20:30:57
(UTC+02:00)

DELTA 2 R/B (1) - Visible Passes

Search period start: 30 April 2017 00:00
Search period end: 10 May 2017 00:00
Orbit: 790 x 804 km, 39.6° (Epoch: 28 April)

Date Brightness Start Highest point End Pass type
(mag) Time Alt. Az. Time Alt. Az. Time Alt. Az.
30 Apr 5.0 21:29:41 10° NNW 21:33:56 23° NE 21:33:56 23° NE visible
01 May 5.1 20:59:06 10° N 21:03:13 21° NE 21:05:07 18° ENE visible
01 May 5.8 22:44:07 10° WNW 22:45:55 21° WNW 22:45:55 21° WNW visible
02 May 5.3 20:28:35 10° N 20:32:23 18° NE 20:36:10 10° E visible
02 May 4.5 22:13:13 10° NW 22:17:08 44° WNW 22:17:08 44° WNW visible
03 May 3.5 21:42:22 10° NW 21:47:57 75° SW 21:48:24 70° S visible
04 May 3.5 21:11:31 10° NW 21:17:08 84° SW 21:19:41 34° SE visible
05 May 3.6 20:40:42 10° NW 20:46:18 86° NE 20:50:58 15° SE visible
05 May 6.0 22:29:53 10° WSW 22:31:48 14° SW 22:31:48 14° SW visible
06 May 5.7 21:58:34 10° WSW 22:01:55 16° SW 22:03:05 15° SSW visible
07 May 5.3 07:02:18 10° SSW 07:06:55 27° SE 07:11:31 10° E visible
07 May 5.7 21:27:18 10° W 21:31:04 18° SW 21:34:21 12° S visible
08 May 5.4 06:32:09 12° S 06:36:05 24° SE 06:40:27 10° E visible
08 May 5.6 20:56:08 10° W 21:00:14 21° SW 21:04:19 10° S visible
09 May 5.4 06:03:27 18° SSE 06:05:16 21° SE 06:09:21 10° E visible
09 May 5.5 20:25:01 10° W 20:29:23 23° SW 20:33:46 10° S visible
